www.pogodaiklimat.ru

Погода и климат >> Архив погоды >> Австралия >> Западная Австралия >> Дауоллину


ПОГОДА в Дауоллину

  • Прогноз погоды в Дауоллину
  • Монитор погоды в Дауоллину

АРХИВ ПОГОДЫ в Дауоллину

Время (UTC), дата Ветер
(напр.,м/с)
 
Видим.   Явления Облачность Т
(С)
Тd
(С)
f
(%)
Тe
(С)
Тes
(С)
Комфортность P
(гПа)
Po
(гПа)
Тmin
(С)
Tmax
(С)
R
(мм)
R24
(мм)
S
(см)
16 16.07 Ю 2 н/о н/о +8.9 +3.3 68 +7 +7 1027.1 988.1
19 16.07 ЮВ 2 н/о н/о +8.0 +3.5 73 +7 +7 1025.6 986.6
22 16.07 СВ 1 н/о н/о +5.9 +3.4 84 +5 +5 1024.8 985.9
01 17.07 СВ 3 н/о н/о +9.6 +5.6 76 +8 +8 1025.5 986.5 +4.8
04 17.07 С 5 н/о н/о +19.5 +3.6 35 +20 +20 1024.0 985.1
07 17.07 СЗ 5 н/о н/о +21.0 +1.3 27 +21 +21 комфорт 1021.7 982.9
10 17.07 СЗ 3 н/о н/о +16.8 +2.0 37 +17 +17 1021.7 982.9
13 17.07 ЮЗ 4 н/о н/о +13.5 +4.4 54 +12 +12 1023.0 984.1 +21.7
16 17.07 Ю 2 н/о н/о +9.6 +4.8 72 +8 +8 1022.2 983.4
19 17.07 штиль 0 н/о н/о +7.5 +4.6 82 +7 +7 1021.3 982.5
22 17.07 штиль 0 н/о н/о +5.7 +3.5 86 +5 +5 1021.2 982.4
01 18.07 СВ 1 н/о н/о +11.3 +7.4 77 +12 +12 1022.2 983.4 +4.1
04 18.07 СВ 3 н/о н/о +17.9 +7.6 51 +18 +18 1020.9 982.1
07 18.07 СЗ 4 н/о н/о +20.3 +2.6 31 +21 +21 комфорт 1018.2 979.5
10 18.07 З 2 н/о н/о +15.2 +3.7 46 +15 +15 1018.0 979.3
13 18.07 З 3 н/о н/о +12.6 +3.3 53 +12 +12 1018.1 979.4 +20.7
16 18.07 С 2 н/о н/о +7.2 +3.3 76 +6 +6 1017.0 978.4
19 18.07 СЗ 4 н/о н/о +9.6 +3.6 66 +7 +7 1015.5 976.9
22 18.07 З 3 н/о н/о +6.0 +4.3 89 +3 +3 1014.4 975.9
01 19.07 СЗ 4 н/о н/о +11.4 +9.0 85 +9 +9 1014.4 975.9 +5.7
04 19.07 СЗ 7 н/о н/о +18.0 +9.9 59 +17 +17 1012.6 974.1
07 19.07 СЗ 10 н/о н/о +18.8 +6.6 45 +18 +18 1010.0 971.6
10 19.07 СЗ 8 н/о н/о +16.2 +9.2 63 +15 +15 1009.4 971.0
13 19.07 З 7 н/о {туман} н/о +12.7 +11.4 92 +10 +10 1010.4 972.0 +19.4
16 19.07 З 5 н/о {туман} н/о +10.5 +8.6 88 +7 +7 1012.4 973.9
19 19.07 З 4 н/о {туман} н/о +8.7 +6.8 88 +5 +5 1014.2 975.7
22 19.07 З 4 н/о {туман} н/о +7.4 +5.9 90 +4 +4 1016.5 977.9
01 20.07 З 4 н/о {туман} н/о +10.2 +7.6 84 +7 +7 1019.4 980.7 +6.1
04 20.07 ЮЗ 6 н/о н/о +13.5 +8.6 72 +11 +11 1020.6 981.8
07 20.07 ЮЗ 4 н/о {туман} н/о +15.3 +8.3 63 +15 +15 1020.0 981.2
10 20.07 ЮЗ 3 н/о н/о +12.7 +6.7 67 +11 +11 1021.5 982.7
13 20.07 З 4 н/о н/о +9.6 +8.0 90 +7 +7 1022.9 984.0 +16.1
16 20.07 СЗ 3 н/о н/о +8.4 +7.3 93 +6 +6 1022.0 983.2
19 20.07 СЗ 3 н/о н/о +7.7 +7.1 96 +5 +5 1021.5 982.7
22 20.07 СЗ 3 н/о {туман} н/о +7.7 +6.6 93 +5 +5 1020.9 982.1
01 21.07 СЗ 4 н/о {туман} н/о +11.5 +9.4 87 +9 +9 1021.7 982.9 +6.7
04 21.07 З 6 н/о н/о +16.5 +10.8 69 +15 +15 1020.6 981.8
07 21.07 З 7 н/о н/о +16.6 +10.2 66 +15 +15 1019.1 980.4
10 21.07 З 4 н/о н/о +14.5 +8.7 68 +13 +13 1020.0 981.2
13 21.07 З 3 н/о н/о +11.3 +8.9 85 +9 +9 1020.2 981.4 +18.2
16 21.07 З 4 н/о н/о +10.7 +8.8 88 +8 +8 1019.3 980.6
19 21.07 З 3 н/о н/о +11.3 +9.9 91 +9 +9 1018.9 980.2
22 21.07 З 3 н/о {туман} н/о +11.5 +10.7 95 +10 +10 1019.5 980.8
01 22.07 Ю 4 н/о {туман} н/о +11.7 +10.6 93 +9 +9 1021.6 982.8 +9.0
04 22.07 Ю 5 н/о {туман} н/о +14.7 +9.3 70 +13 +13 1022.0 983.2
07 22.07 Ю 4 н/о {туман} н/о +16.0 +8.5 61 +15 +15 1021.2 982.4
10 22.07 ЮЗ 3 н/о н/о +13.7 +9.4 75 +13 +13 1022.5 983.6
13 22.07 Ю 3 н/о н/о +11.4 +9.0 85 +10 +10 1023.9 985.0 +16.9
16 22.07 Ю 3 н/о н/о +8.9 +7.4 90 +6 +6 1024.5 985.6
19 22.07 Ю 3 н/о н/о +7.8 +6.9 94 +5 +5 1024.3 985.4
22 22.07 Ю 2 н/о н/о +6.3 +5.6 95 +4 +4 1025.5 986.5
01 23.07 СВ 2 н/о н/о +9.7 +8.9 95 +8 +8 1026.9 987.9 +5.5
04 23.07 В 4 н/о н/о +15.2 +8.7 65 +14 +14 1026.4 987.4
07 23.07 В 4 н/о н/о +15.7 +8.2 61 +15 +15 1024.5 985.6
10 23.07 В 2 н/о н/о +11.8 +7.7 76 +11 +11 1025.3 986.3
13 23.07 ЮВ 4 н/о н/о +9.4 +7.2 86 +7 +7 1025.9 986.9 +16.4
16 23.07 ЮВ 1 н/о н/о +8.5 +7.1 91 +9 +9 1025.9 986.9

 

Местоположение метеостанции Дауоллину (Западная Австралия, Австралия): широта -30.28 долгота 116.67 высота над уровнем моря 326 м.

В архиве по умолчанию представлена погода в Дауоллину за последнюю неделю. Архивные данные за месяц целиком и за предыдущие месяцы, начиная с января 2011 года, Вы можете получить, выбрав интересующий диапазон дат из раскрывающегося списка и нажав кнопку "Ввод!".


*Определитесь, кто Вы:
робот инопланетянин человек

Внимание! Время в таблицах - всемирное. Для получения местного времени необходимо прибавить поправку, которая равна 8 ч.

Смотрите также архив погоды в соседних городах и на ближайших метеорологических станциях:

Погода в Баджингарре (Западная Австралия, Австралия) (110 км)
Погода в Мораве (Западная Австралия, Австралия) (136 км)
Погода в Гингине (Западная Австралия, Австралия) (153 км)
Погода в Кандердине (Западная Австралия, Австралия) (158 км)
Погода в Буллсбрук Пирс (Западная Австралия, Австралия) (167 км)
Погода в Ошен Риф (Западная Австралия, Австралия) (187 км)
Погода в Гусберри Хилл (Западная Австралия, Австралия) (195 км)
Погода в Перте (Западная Австралия, Австралия) (196 км)
Погода в Перт Монт-Лоули (Западная Австралия, Австралия) (198 км)
Погода в Обсерватории Перт (Западная Австралия, Австралия) (200 км)

Пояснения к столбцам:

Ветер - указаны скорость ветра в м/с - средняя за 10 мин, порывы в срок и между сроками (в фигурных скобках) и направление, откуда дует ветер: С - северный, СВ - северо-восточный, В - восточный, ЮВ - юго-восточный, Ю - южный, ЮЗ - юго-западный, З - западный, СЗ - северо-западный.
Видимость - горизонтальная дальность видимости в метрах или километрах. При видимости от 1 до 10 км при отсутствии осадков обычно наблюдается дымка, при ухудшении видимости до 1 км и менее - туман. В сухую погоду видимость может ухудшаться дымом, пылью или мглою.
Явления - указаны атмосферные явления, наблюдавшиеся в срок или в последний час перед сроком; фигурными скобками обозначены явления, наблюдавшиеся между сроками (за 1-3 часа до срока); квадратными скобками обозначены град или гололедные отложения с указанием их диаметра в мм.
Облачность - указаны через наклонную черту общая и нижняя облачность в баллах и высота нижней границы облаков в метрах; квадратными скобками обозначены формы облаков: Ci - перистые, Cs - перисто-слоистые, Cc - перисто-кучевые, Ac - высококучевые, As - высокослоистые, Sc - слоисто-кучевые, Ns - слоисто-дождевые, Cu - кучевые, Cb - кучево-дождевые. Подробнее классификацию облаков см. в Атласе облаков (PDF).
T - Температура воздуха - температура, измеренная на высоте 2 м над землей.
Td - Температура точки росы - температура, при понижении до которой содержащийся в воздухе водяной пар достигнет насыщения.
f - Относительная влажность воздуха - влажноcть воздуха, измеренная на высоте 2 м над землей.
Te - Эффективная температура - температура, которую ощущает одетый по сезону человек в тени. Характеристика душности погоды. При расчете учитывается влияние влажности воздуха и скорости ветра на теплоощущения человека.
Tes - Эффективная температура на солнце - температура, которую ощущает человек, с поправкой на солнечный нагрев. Характеристика знойности погоды. Зависит от высоты солнца над горизонтом, облачности и скорости ветра. Ночью, в пасмурную погоду, а также при ветре 12 м/с и более поправка равна нулю.
P - Атмосферное давление - приведенное к уровню моря атмосферное давление.
Po - Атмосферное давление - измеренное на уровне метеостанции атмосферное давление.
Tmin - Минимальная температура - минимум температуры воздуха на высоте 2 м над землей.
Tmax - Максимальная температура - максимум температуры воздуха на высоте 2 м над землей.
R - Количество осадков - Количество выпавших осадков за период времени, мм. При наведении курсора мыши на число - период времени, за который выпало указанное количество осадков.
R24 - Количество осадков - Количество выпавших осадков за 24 часа, мм.
S - Снежный покров - Высота снежного покрова, см. При наведении курсора мыши на число - состояние снежного покрова и степень покрытия местности в баллах.